Back to catalog

STARLINK-6353

AliveCommunicationsVLEO
NORAD 57056·PAYLOAD·🇺🇸 United States

Launched Jun 22, 2023 from Vandenberg Space Force Base

Loading…

Next Passes (next 24 hours)

TLE

FreshSource: CelesTrak SupGP

Epoch: Sep 15, 2026, 03:07 UTC

1 57056C 23088J   26258.13034722  .00045346  00000+0  16426-2 0  2589
2 57056  43.0001 120.4939 0001716 260.4251 275.2324 15.27551370    18

Track STARLINK-6353 in real time with AllMySat

Download on the App Store